Change the Weather History Date:

Wednesday, November 21, 2012

  Actual Average Record
Temperature  
Mean Temperature 72 °F -  
Max Temperature 89 °F 84 °F - ()
Min Temperature 55 °F 56 °F - ()
Cooling Degree Days 7    
Growing Degree Days 22 (Base 50)    
Moisture  
Dew Point 59 °F    
Average Humidity 62    
Maximum Humidity 86    
Minimum Humidity 42    
Precipitation  
Precipitation 0.00 in 0.02 in - ()
Sea Level Pressure  
Sea Level Pressure 29.94 in    
Wind  
Wind Speed 2 mph ()    
Max Wind Speed 5 mph    
Max Gust Speed -    
Visibility 2.5 miles    
Events      
T = Trace of Precipitation, MM = Missing Value Source: Averaged Metar Reports

Daily Weather History Graph

Daily Weather History Graph

Search for Another Location

Airport or City:

Trip Planner

Search our weather history database for the weather conditions in past years. The results will help you decide how hot, cold, wet, or windy it might be!

Date:

Astronomy

Nov. 21, 2012 Rise Set
Actual Time 6:27 AM IST 5:31 PM IST
Civil Twilight 6:04 AM IST 5:54 PM IST
Nautical Twilight 5:37 AM IST 6:21 PM IST
Astronomical Twilight 5:10 AM IST 6:48 PM IST
Moon 12:48 PM IST No Moon Set
Length of Visible Light 11h 50m
Length of Day
11h 03m
First Quarter, 57% of the Moon is Illuminated
Nov 21
First Quarter
Nov 28
Full
Dec 6
Last Quarter
Dec 13
New
Dec 20
First Quarter

Hourly Weather History & Observations

Time (IST) Temp. Heat Index Dew Point Humidity Pressure Visibility Wind Dir Wind Speed Gust Speed Precip Events Conditions
12:10 AM 64.4 °F - 55.4 °F 73% 29.95 in 3.1 mi Calm Calm - N/A   Haze
1:10 AM 60.8 °F - 55.4 °F 82% 29.95 in 3.1 mi NW 3.5 mph - N/A   Haze
2:10 AM 59.0 °F - 53.6 °F 82% 29.92 in 3.1 mi WNW 3.5 mph - N/A   Haze
2:30 AM 56 °F - 53 °F 86% 29.92 in 2 mi NNW 2.3 mph - -   Haze
3:10 AM 59.0 °F - 53.6 °F 82% 29.92 in 3.1 mi North 2.3 mph - N/A   Haze
4:10 AM 62.6 °F - 46.4 °F 55% 29.89 in 3.1 mi NNW 2.3 mph - N/A   Haze
5:30 AM 57 °F - 54 °F 86% 29.93 in 2 mi NNW 2.3 mph - -   Haze
6:10 AM 60.8 °F - 48.2 °F 63% 29.95 in 3.1 mi Calm Calm - N/A   Haze
7:10 AM 60.8 °F - 48.2 °F 63% 29.98 in 3.1 mi NW 2.3 mph - N/A   Haze
8:10 AM 66.2 °F - 48.2 °F 52% 30.01 in 3.1 mi NW 2.3 mph - N/A   Haze
8:30 AM 67 °F - 54 °F 55% 30.01 in 2 mi North 3.5 mph - -   Haze
9:10 AM 71.6 °F - 51.8 °F 50% 30.04 in 3.1 mi North 3.5 mph - N/A   Haze
10:10 AM 77.0 °F - 55.4 °F 47% 30.04 in 3.1 mi NNE 4.6 mph - N/A   Haze
11:10 AM 82.4 °F 82.9 °F 60.8 °F 48% 30.01 in 3.1 mi East 4.6 mph - N/A   Haze
11:30 AM 82 °F - 64 °F 45% 29.96 in 2 mi NE 4.6 mph - -   Haze
12:10 PM 86.0 °F 87.3 °F 64.4 °F 48% 29.98 in 3.1 mi NE 4.6 mph - N/A   Haze
1:10 PM 87.8 °F 90.4 °F 66.2 °F 49% 29.95 in 3.1 mi ENE 3.5 mph - N/A   Haze
2:10 PM 91.4 °F 94.0 °F 66.2 °F 43% 29.92 in 3.1 mi West 2.3 mph - N/A   Haze
2:30 PM 87 °F - 67 °F 42% 29.84 in 2 mi ESE 2.3 mph - -   Haze
3:10 PM 87.8 °F 89.4 °F 64.4 °F 46% 29.89 in 3.1 mi South 2.3 mph - N/A   Haze
4:10 PM 87.8 °F 90.4 °F 66.2 °F 49% 29.89 in 3.1 mi East 2.3 mph - N/A   Haze
5:10 PM 84.2 °F 85.6 °F 64.4 °F 51% 29.89 in 2.5 mi NNE 2.3 mph - N/A   Haze
5:30 PM 80 °F - 67 °F 55% 29.85 in 2 mi NNE 3.5 mph - -   Haze
6:10 PM 80.6 °F 81.8 °F 62.6 °F 54% 29.89 in 1.6 mi NE 2.3 mph - N/A   Haze
7:10 PM 77.0 °F - 62.6 °F 61% 29.92 in 1.6 mi Calm Calm - N/A   Haze
8:10 PM 75.2 °F - 62.6 °F 65% 29.95 in 1.6 mi NNE 2.3 mph - N/A   Haze
8:30 PM 68 °F - 63 °F 80% 29.93 in 1 mi NNE 2.3 mph - -   Haze
9:10 PM 71.6 °F - 62.6 °F 73% 29.95 in 1.6 mi Calm Calm - N/A   Haze
10:10 PM 69.8 °F - 62.6 °F 78% 29.98 in 1.6 mi Calm Calm - N/A   Haze
11:30 PM 67 °F - 63 °F 82% 29.94 in 1 mi NW 4.6 mph - -   Haze